Marcelo Costa

Olheiro - Cruzeiro
3 Abr 2027
Sábado
Processo

Personalidade

Adaptabilidade (15) Ambição (3) Controvérsia (12) Lealdade (15) Pressão (18) Profissionalismo (6) Espírito Esportivo (8) Temperamento (12)

Perfil

Estilo de Treinamento Democrático
Licença Continental Pro
Determinação 10
Gestão de Pessoas 10
Motivação 6
Disciplina 12
Satisfação no Trabalho
73%
Fadiga
0%
Função Olheiro
Salário 90.0K p/s
Contrato 14.03.2029

Desempenho

Comportamento Bom
Eficácia do Treinamento
34%
Desenvolvimento do Jogador
55%
Prevenção de Lesões
60%
Implementação Tática
25%

Eventos Recentes

Participou de uma reunião de recrutamento agora
Recomendou um alvo de transferência agora
Avaliou um jogador agora
Avaliou um jogador agora
Avaliou um jogador 7d atrás
Avaliou um jogador 7d atrás
Avaliou um jogador 7d atrás
Avaliou um jogador 7d atrás

Monitorando agora

179
Jogador Clube Status Habilidade Confiança Observado Última observação Último voto
Alan KAA Gent Ativo 137 / 142 40% 5 02.04.2027 -
Helinho Toluca Ativo 127 / 117 40% 6 02.04.2027 -
Facundo Torres Shakhtar Ativo 140 / 149 40% 4 02.04.2027 -
Tommy Conway Middlesbrough Ativo 132 / 143 40% 1 31.03.2027 -
Bitello Dinamo Moscow Ativo 135 / 122 40% 1 31.03.2027 -
Bryan González Guadalajara Ativo 131 / 119 40% 1 31.03.2027 -
Marcelo Allende Mamelodi Sundowns Ativo 127 / 128 40% 4 30.03.2027 -
Luca Orellano Monterrey Ativo 141 / 121 40% 2 30.03.2027 -
Lorougnon Gohi Académico de Viseu Ativo 112 / 129 40% 2 30.03.2027 -
Facundo Pellistri Panathinaikos Ativo 133 / 124 40% 4 30.03.2027 -
Aidomo Emakhu Oxford United Ativo 126 / 111 40% 1 30.03.2027 -
Tyler Goodrham Oxford United Ativo 129 / 126 40% 1 30.03.2027 -
Keagan Hlatshwayo SuperSport United Ativo 121 / 128 40% 2 27.03.2027 -
Manuel Mendonça Moreirense Ativo 116 / 114 40% 1 27.03.2027 -
Siyanda Ndlovu Hearts of Oak Ativo 116 / 106 40% 1 27.03.2027 -
Giorgos Koutsias Famalicao Ativo 117 / 112 40% 3 26.03.2027 -
Haissem Hassan Bloemfontein Celtic Ativo 139 / 132 40% 3 26.03.2027 -
Brandon Aguilera Rio Ave Ativo 113 / 121 40% 1 26.03.2027 -
Cian Ashford Cardiff City Ativo 113 / 123 40% 1 26.03.2027 -
Tyreece Campbell Charlton Athletic Ativo 116 / 117 40% 1 24.03.2027 -
Alex Robertson Cardiff City Ativo 120 / 117 40% 1 24.03.2027 -
Malik Mothersille Stockport County Ativo 109 / 125 40% 1 24.03.2027 -
Efraín Álvarez Guadalajara Ativo 127 / 133 40% 2 21.03.2027 -
Emi Rodriguez Leon Ativo 120 / 112 40% 1 21.03.2027 -
Mateja Stjepanović Moreirense Ativo 123 / 125 40% 1 21.03.2027 -
Taichi Fukui Arouca Ativo 122 / 140 40% 3 19.03.2027 -
Korede Osundina Casa Pia Ativo 121 / 119 40% 3 19.03.2027 -
Diogo Spencer Alverca Ativo 117 / 125 40% 1 19.03.2027 -
Luis Quintero Torreense Ativo 130 / 118 40% 5 18.03.2027 -
Tamás Szűcs Famalicao Ativo 117 / 136 40% 2 18.03.2027 -
Fabio Blanco Vitoria Guimaraes Ativo 111 / 112 40% 2 18.03.2027 -
Andrés Gómez Vasco da Gama Ativo 140 / 138 40% 4 17.03.2027 -
Cristian Shpendi Cesena Ativo 135 / 133 40% 1 17.03.2027 -
Lee Hyun-Ju Arouca Ativo 129 / 121 40% 1 15.03.2027 -
Fidel Ambríz Monterrey Ativo 137 / 143 40% 3 10.03.2027 -
Ibrahim Tarek Masr El Makasa Ativo 124 / 124 40% 1 10.03.2027 -
Stav Toriel Hapoel Tel Aviv Ativo 123 / 140 40% 2 07.03.2027 -
Majid Dejagah Gostaresh Foulad Ativo 134 / 126 40% 2 07.03.2027 -
Marlon Gomes Shakhtar Ativo 140 / 133 40% 1 07.03.2027 -
Yanis Begraoui Estoril Praia Ativo 136 / 137 40% 3 06.03.2027 -
Patrik Wålemark Lech Ativo 133 / 135 40% 1 06.03.2027 -
Eliás Montiel Pachuca Ativo 127 / 128 40% 1 06.03.2027 -
Kauã Elias Shakhtar Ativo 139 / 126 40% 2 04.03.2027 -
Giovanni Reyna RC Strasbourg Ativo 135 / 121 40% 1 04.03.2027 -
Samuele Birindelli Monza Ativo 126 / 113 40% 1 04.03.2027 -
Sergey Pinyaev Lokomotiv Moscow Ativo 124 / 132 40% 2 27.02.2027 -
Rodrigo Ramos Moreirense Ativo 121 / 131 40% 1 27.02.2027 -
Peter Federico Gornik Zabrze Ativo 123 / 109 40% 1 27.02.2027 -
Ali Soliman Masr El Makasa Ativo 120 / 122 40% 2 26.02.2027 -
Artem Slesar Zorya Ativo 117 / 129 40% 1 26.02.2027 -
Lukáš Červ Viktoria Plzen Ativo 129 / 142 40% 1 25.02.2027 -
Afimico Pululu Al-Hazem Ativo 132 / 133 40% 1 24.02.2027 -
Jackson Muleka Konyaspor Ativo 130 / 129 40% 1 23.02.2027 -
Brian Rodríguez Club America Ativo 138 / 131 40% 1 23.02.2027 -
Allahyar Sayyadmanesh Lech Ativo 125 / 132 40% 1 21.02.2027 -
Richard Ledezma Guadalajara Ativo 143 / 125 40% 1 21.02.2027 -
Pedro Henrique Shakhtar Ativo 132 / 126 40% 1 20.02.2027 -
Vinicinho Bragantino Ativo 132 / 128 40% 2 17.02.2027 -
Kaveh Mohammadi Padideh Ativo 127 / 138 40% 1 17.02.2027 -
Serginho Al Wasl Ativo 125 / 131 40% 1 17.02.2027 -
Zeidane Inoussa Swansea City Ativo 123 / 116 40% 1 17.02.2027 -
Beni Mukendi Vitoria Guimaraes Ativo 130 / 128 40% 3 15.02.2027 -
Pedro Vite Pumas UNAM Ativo 122 / 125 40% 2 15.02.2027 -
César Huerta Pumas UNAM Ativo 128 / 121 40% 4 13.02.2027 -
Nuno Moreira Vasco da Gama Ativo 137 / 133 40% 2 13.02.2027 -
Henry Mosquera Bragantino Ativo 133 / 130 40% 2 13.02.2027 -
Figueiredo Alverca Ativo 135 / 133 40% 5 12.02.2027 -
Juan Bezerra Zamalek Ativo 114 / 108 40% 1 11.02.2027 -
Lohann Doucet Vitoria Guimaraes Ativo 126 / 109 40% 2 09.02.2027 -
Iker Benito Queretaro Ativo 130 / 110 40% 1 09.02.2027 -
Luís Guilherme Sporting CP Ativo 123 / 137 40% 1 07.02.2027 -
Jhon Jhon Zenit Ativo 133 / 138 40% 1 03.02.2027 -
Cesar Corona Veracruz Ativo 144 / 143 40% 1 28.01.2027 -
Chiquinho Alverca Ativo 138 / 119 40% 1 28.01.2027 -
Eric Ramires Bragantino Ativo 129 / 127 40% 1 26.01.2027 -
Gianluca Prestianni Benfica Ativo 138 / 134 40% 3 24.01.2027 -
Finn Azaz Southampton Ativo 124 / 129 40% 1 24.01.2027 -
Ronaldo Rostov Ativo 124 / 125 40% 1 18.01.2027 -
Braian Aguirre Internacional Ativo 134 / 125 40% 1 18.01.2027 -
Leandro Andrade Polissia Ativo 134 / 127 40% 1 14.01.2027 -
Danilo Botafogo Ativo 142 / 135 40% 1 14.01.2027 -
Francis Amuzu Grêmio Ativo 134 / 139 40% 2 13.01.2027 -
Erick Pulga Bahia Ativo 132 / 127 40% 1 13.01.2027 -
Diego Lainez Tigres Ativo 122 / 128 40% 1 12.01.2027 -
Gonzalo Plata Dinamo Moscow Ativo 143 / 149 40% 1 12.01.2027 -
Cristian Medina Botafogo Ativo 133 / 138 40% 2 11.01.2027 -
Reda Khadra Qarabag Ativo 134 / 127 40% 1 09.01.2027 -
Erik Lira Cruz Azul Ativo 135 / 130 40% 1 08.01.2027 -
Lucas Piton Vasco da Gama Ativo 129 / 124 40% 2 07.01.2027 -
Caio Alexandre Bahia Ativo 140 / 142 40% 1 07.01.2027 -
Luciano Gondou CSKA Moscow Ativo 131 / 112 40% 1 04.01.2027 -
Vitinho Botafogo Ativo 129 / 137 40% 1 04.01.2027 -
Emanuel Brítez Vitória Relatório pronto 129 / 129 79% 1 21.12.2026 Aprovar
Alisson Safira Juventude Rejeitado 116 / 127 79% 1 01.12.2026 Rejeitar
Jalen Blesa Rio Ave Ativo 121 / 122 40% 3 21.11.2026 -
Mohamed-Ali Cho Hull City Ativo 138 / 142 40% 1 21.11.2026 -
Henrique Araújo Casa Pia Ativo 115 / 127 40% 1 21.11.2026 -
Vitor Roque Palmeiras Ativo 138 / 141 40% 3 20.11.2026 -
Cesar Corona Veracruz Perdido 141 / 138 40% 1 20.11.2026 -
Fotis Ioannidis Sporting CP Ativo 144 / 124 40% 1 20.11.2026 -
Jean-Luc Morin Tours Ativo 147 / 129 40% 1 12.11.2026 -
Alfonso Trezza Arouca Ativo 119 / 117 40% 1 12.11.2026 -
Óscar Aranda Espanyol Ativo 122 / 124 40% 1 04.11.2026 -
Jon Karrikaburu Burgos Ativo 126 / 138 40% 1 04.11.2026 -
Alexey Batrakov Galatasaray Ativo 135 / 150 40% 4 19.10.2026 -
Iván Fresneda Sporting CP Ativo 142 / 150 40% 2 18.10.2026 -
Matheus Dias Nacional Ativo 130 / 129 40% 4 18.10.2026 -
Kélian Nsona Casa Pia Perdido 122 / 105 40% 1 18.10.2026 -
Toni Tamarit Alverca Ativo 121 / 109 40% 3 17.10.2026 -
Ciprian Coman Pandurii Ativo 121 / 132 40% 2 16.10.2026 -
Markus Jensen Nacional Ativo 103 / 113 40% 1 16.10.2026 -
Joelson Fernandes Gil Vicente Ativo 114 / 119 40% 1 15.10.2026 -
Akinkunmi Amoo Ismaily Ativo 123 / 129 40% 1 15.10.2026 -
Tomás O'Connor Gimnasia y Esgrima Ativo 124 / 127 40% 1 15.10.2026 -
Kahiser Lenis Atletico Goianiense Ativo 118 / 118 30% 1 / 1m 14.10.2026 -
Nicolás Azambuja Danubio Ativo 110 / 139 40% 3 12.10.2026 -
Gorka Carrera Real Sociedad Ativo 110 / 135 40% 1 12.10.2026 -
Dom Ballard Leyton Orient Ativo 124 / 133 40% 5 11.10.2026 -
Mateus Mané Manchester United Ativo 121 / 142 40% 1 11.10.2026 -
Archie Goodwin Charlotte Football Club Ativo 99 / 96 40% 1 11.10.2026 -
Talles Magno New York City Ativo 134 / 143 40% 1 10.10.2026 -
Efraín Álvarez Guadalajara Perdido 133 / 137 40% 1 10.10.2026 -
Martim Fernandes Porto Ativo 128 / 129 40% 4 08.10.2026 -
Mario Dorgeles Braga Ativo 132 / 149 40% 2 08.10.2026 -
Adnan Courtois KV Oostende Ativo 113 / 136 40% 2 06.10.2026 -
Luca Langoni New England Revolution Ativo 128 / 133 40% 3 02.10.2026 -
Dilan Godoy Vélez Ativo 106 / 120 40% 2 02.10.2026 -
Lucas Duarte Felgueiras Ativo 109 / 98 40% 1 02.10.2026 -
Bongokuhle Hlongwane Minnesota United FC Ativo 121 / 132 40% 1 29.09.2026 -
Jorge Meireles AVS Ativo 103 / 127 40% 1 29.09.2026 -
Will Lankshear Middlesbrough Ativo 124 / 131 40% 2 28.09.2026 -
João Costa Santa Clara Ativo 106 / 116 40% 1 26.09.2026 -
Exequiel Zeballos Boca Juniors Ativo 130 / 131 40% 1 26.09.2026 -
Luka Romero Cruz Azul Ativo 125 / 113 40% 1 25.09.2026 -
Alejandro Piedrahita Deportivo Pereira Ativo 126 / 121 40% 2 24.09.2026 -
Dominik Steczyk Académico de Viseu Ativo 108 / 110 40% 1 24.09.2026 -
Sorriso Famalicao Ativo 130 / 121 40% 1 24.09.2026 -
Diogo Travassos Braga Ativo 129 / 137 40% 2 21.09.2026 -
Oumar Camara Vitoria Guimaraes Rejeitado 115 / 142 40% 2 21.09.2026 Mais informações
Ramiro Hernandes Belgrano Ativo 115 / 116 40% 1 21.09.2026 -
Yoshan Valois Lanús Ativo 115 / 114 40% 2 18.09.2026 -
Leo Castledine Middlesbrough Ativo 124 / 127 40% 2 17.09.2026 -
Majid Dejagah Gostaresh Foulad Perdido 121 / 127 40% 1 17.09.2026 -
Nahuel Gelos Miramar Misiones Ativo 97 / 113 40% 1 14.09.2026 -
Xavier Biscayzacú Defensor Sporting Ativo 127 / 124 40% 1 13.09.2026 -
Leonardo Lelo Braga Ativo 133 / 118 40% 1 12.09.2026 -
Tetê Grêmio Ativo 128 / 131 40% 1 12.09.2026 -
Liel Abada Charlotte Football Club Ativo 126 / 138 40% 1 12.09.2026 -
Gabriel Pirani San Diego Football Club Ativo 130 / 136 40% 1 09.09.2026 -
Bryan Limbombe Maritimo Ativo 100 / 99 40% 1 08.09.2026 -
Léo Jacó Santa Clara Ativo 90 / 88 40% 3 07.09.2026 -
Rodrigo Pinheiro Famalicao Ativo 126 / 137 40% 3 07.09.2026 -
Luis Fernando Santa Clara Ativo 103 / 88 40% 1 07.09.2026 -
Rocco Vata Watford Ativo 114 / 125 40% 1 05.09.2026 -
Luís Guilherme Sporting CP Perdido 129 / 144 40% 1 03.09.2026 -
Róyner Benítez Aguilas Doradas Ativo 104 / 108 40% 1 02.09.2026 -
Thomas Waddingham Portsmouth Ativo 103 / 121 40% 1 01.09.2026 -
Patrick Preciado Deportivo Pasto Ativo 101 / 115 40% 1 01.09.2026 -
Diego Rodrigues Braga Ativo 121 / 120 40% 2 30.08.2026 -
Demir Ege Tıknaz Braga Ativo 120 / 119 40% 1 30.08.2026 -
João Marques Braga Ativo 116 / 122 40% 1 26.08.2026 -
Omar Campos Cruz Azul Ativo 127 / 118 40% 1 25.08.2026 -
Samy Merheg Alverca Ativo 99 / 112 40% 1 21.08.2026 -
William Gomes Porto Ativo 134 / 146 40% 2 19.08.2026 -
Diego Luna Real Salt Lake Ativo 129 / 121 40% 1 17.08.2026 -
Pau Víctor Braga Ativo 140 / 121 40% 1 15.08.2026 -
Paxten Aaronson Colorado Rapids Ativo 126 / 151 40% 1 15.08.2026 -
Carlos Eduardo Mirassol Ativo 125 / 125 42% 1 / 1m 12.08.2026 -
Francisco Domingues Moreirense Ativo 109 / 123 40% 1 12.08.2026 -
Silas Andersen Sporting CP Ativo 116 / 130 40% 2 10.08.2026 -
Manu Pozo Torreense Ativo 122 / 116 40% 1 10.08.2026 -
Andreas Schjelderup Benfica Ativo 137 / 152 40% 1 10.08.2026 -
Ryan Oné Sheffield United Ativo 104 / 128 40% 1 09.08.2026 -
Christian Marques Tondela Ativo 112 / 111 40% 1 03.08.2026 -
Pablo Maia Sport Recife Ativo 125 / 131 40% 1 03.08.2026 -
Brayan Medina Tondela Ativo 113 / 131 40% 1 02.08.2026 -
Mathias De Amorim Famalicao Ativo 132 / 144 40% 1 02.08.2026 -
Mario Climent Arouca Ativo 121 / 123 40% 1 01.08.2026 -
Espen van Ee Arouca Ativo 123 / 113 40% 1 01.08.2026 -